DW7795 Weather Reports


Display with metric or nautical units.
time (UTC)temp
F
wind
direction
speed
MPH
gust
MPH
rain 1hr
in
rain 24hr
in
rain mn
in
humidity
%
barometer
mb
20190215231541 45 190 2.0 11.0 0.00 0.56 0.11 85 1003.9
20190215230031 45 88 2.0 8.0 0.00 0.62 0.11 85 1003.8
20190215224528 45 152 3.0 15.0 0.00 0.62 0.11 85 1003.5
20190215223043 45 135 3.0 11.0 0.00 0.62 0.11 86 1003.5
20190215221635 44 139 2.0 10.0 0.00 0.62 0.11 86 1003.5
20190215220129 44 123 2.0 12.0 0.00 0.64 0.11 85 1003.3
20190215214530 44 82 7.0 17.0 0.00 0.64 0.11 84 1003.3
20190215213135 45 127 6.0 15.0 0.00 0.64 0.11 84 1003.3
20190215211621 46 129 1.0 5.0 0.00 0.64 0.11 85 1003.2
20190215203114 43 139 4.0 10.0 0.00 0.65 0.11 85 1002.9
20190215201554 43 137 3.0 12.0 0.00 0.65 0.11 86 1002.7
20190215200043 43 120 4.0 16.0 0.00 0.68 0.11 85 1002.7
20190215194518 44 115 5.0 12.0 0.00 0.68 0.11 85 1002.4
20190215193029 44 134 4.0 12.0 0.00 0.68 0.11 85 1002.3
20190215191632 43 99 0.0 15.0 0.00 0.68 0.11 89 1002.0
20190215190107 42 122 2.0 9.0 0.00 0.70 0.11 91 1001.9
20190215184645 41 150 3.0 13.0 0.00 0.70 0.11 92 1001.7
20190215183049 40 128 2.0 14.0 0.00 0.70 0.11 92 1001.6
20190215181553 40 139 1.0 12.0 0.00 0.70 0.11 92 1001.4
20190215180155 39 134 0.0 4.0 0.00 0.70 0.11 93 1001.1
20190215174712 39 150 1.0 10.0 0.00 0.72 0.11 93 1000.8
20190215173050 39 94 0.0 11.0 0.00 0.72 0.11 93 1000.5
20190215171540 39 125 0.0 9.0 0.00 0.72 0.11 94 1000.4
20190215170232 39 173 1.0 9.0 0.00 0.72 0.11 94 999.9
20190215163100 38 97 2.0 8.0 0.00 0.75 0.11 95 999.6
20190215160131 38 137 2.0 9.0 0.02 0.76 0.11 95 999.1
20190215154611 38 142 3.0 9.0 0.04 0.76 0.11 96 998.8
20190215153121 38 105 2.0 10.0 0.04 0.76 0.11 96 998.6
20190215151535 38 91 3.0 9.0 0.03 0.75 0.10 96 998.5
20190215150140 38 96 2.0 14.0 0.02 0.74 0.09 96 998.0
20190215144702 38 139 5.0 12.0 0.01 0.73 0.08 97 997.8
20190215143020 38 123 1.0 7.0 0.01 0.72 0.07 97 997.5
20190215134523 37 127 0.0 4.0 0.03 0.71 0.06 97 996.9
20190215133123 37 88 0.0 2.0 0.03 0.71 0.06 97 996.8
20190215131620 36 130 0.0 7.0 0.03 0.70 0.05 97 996.5
20190215130126 34 101 0.0 0.0 0.03 0.69 0.04 97 996.3
20190215124516 34 101 0.0 0.0 0.02 0.68 0.03 97 996.1
20190215123054 34 101 0.0 0.0 0.02 0.68 0.03 97 995.7
20190215121622 34 101 0.0 0.0 0.01 0.67 0.02 97 995.5
20190215120117 33 101 0.0 0.0 0.01 0.66 0.01 96 995.3
20190215114626 33 101 0.0 0.0 0.01 0.66 0.01 96 995.2
20190215113105 33 101 0.0 0.0 0.01 0.66 0.01 96 995.0
20190215111739 33 101 0.0 0.0 0.00 0.65 0.01 96 995.0
20190215110052 33 101 0.0 0.0 0.00 0.65 0.00 96 994.8
20190215104550 33 101 0.0 0.0 0.00 0.65 0.00 96 994.7
20190215103130 33 101 0.0 0.0 0.00 0.65 0.00 96 994.5
20190215101513 33 101 0.0 0.0 0.00 0.65 0.00 96 994.2
20190215100016 33 101 0.0 0.0 0.00 0.65 0.00 96 994.1
20190215094521 33 101 0.0 0.0 0.00 0.65 0.00 95 993.9
20190215093125 33 101 0.0 0.0 0.00 0.65 0.00 95 993.8
20190215090041 34 101 0.0 0.0 0.00 0.65 0.00 95 993.5
20190215084546 35 101 0.0 0.0 0.00 0.65 0.00 95 993.3
20190215083043 35 101 0.0 0.0 0.00 0.65 0.00 95 993.1
20190215081545 36 101 0.0 0.0 0.00 0.65 0.00 95 992.7
20190215080106 37 101 0.0 0.0 0.00 0.65 0.00 95 992.4
20190215074714 37 101 0.0 0.0 0.00 0.65 0.65 95 992.3
20190215073054 38 101 0.0 4.0 0.00 0.65 0.65 95 992.1
20190215071649 38 77 0.0 7.0 0.01 0.65 0.65 95 992.0
20190215070116 37 136 1.0 10.0 0.02 0.65 0.65 96 992.1
20190215064642 37 135 2.0 8.0 0.02 0.65 0.65 96 992.1
20190215063013 37 133 2.0 8.0 0.03 0.65 0.65 96 992.0
20190215060051 37 123 0.0 4.0 0.02 0.63 0.63 96 991.7
20190215054609 37 129 0.0 7.0 0.03 0.63 0.63 96 991.4
20190215053011 36 88 1.0 9.0 0.03 0.62 0.62 96 991.3
20190215051522 36 101 1.0 4.0 0.05 0.62 0.62 96 991.0
20190215050152 36 114 0.0 5.0 0.06 0.61 0.61 96 990.8
20190215044701 36 131 1.0 6.0 0.07 0.60 0.60 96 990.5
20190215043035 36 121 1.0 9.0 0.07 0.59 0.59 96 990.4
20190215034522 37 116 3.0 12.0 0.07 0.53 0.53 96 989.4
20190215033038 36 128 2.0 10.0 0.08 0.52 0.52 97 988.9
20190215031648 35 121 2.0 7.0 0.08 0.50 0.50 97 988.6
20190215030021 34 355 0.0 0.0 0.07 0.48 0.48 96 988.5
20190215024628 33 355 0.0 0.0 0.06 0.46 0.46 96 988.5
20190215023119 33 355 0.0 0.0 0.05 0.44 0.44 96 988.1
20190215021642 33 355 0.0 0.0 0.05 0.42 0.42 96 987.8
20190215020025 33 355 0.0 0.0 0.05 0.41 0.41 96 987.7
20190215014642 33 355 0.0 0.0 0.05 0.40 0.40 96 987.2
20190215013135 33 355 0.0 0.0 0.05 0.39 0.39 96 987.0
20190215011651 34 355 0.0 0.0 0.05 0.37 0.37 96 986.7
20190215010121 34 355 0.0 0.0 0.07 0.36 0.36 96 986.5
20190215003142 35 355 0.0 3.0 0.10 0.34 0.34 95 986.0
20190215001532 35 355 0.0 1.0 0.10 0.32 0.32 95 985.8
20190214234612 36 355 1.0 4.0 0.09 0.27 0.27 95 985.5
20190214233042 36 355 0.0 5.0 0.07 0.24 0.24 95 985.2